This is the latest recevied weather packets stored in our database for station/object DD3FC-1. If no packets are shown the sender has not sent any weather packets the latest 10 day(s).
| Time | Temp. | Humidity | Pressure | Rain* | Wind** | Luminosity | Snow |
|---|---|---|---|---|---|---|---|
| 1777739439 | 26.67° C | 30% | 1017.5 hPa | 0 mm | - | - | - |
| 1777738839 | 26.67° C | 29% | 1017.5 hPa | 0 mm | - | - | - |
| 1777738239 | 27.22° C | 29% | 1018 hPa | 0 mm | - | - | - |
| 1777737639 | 27.22° C | 29% | 1017.9 hPa | 0 mm | - | - | - |
| 1777737040 | 27.22° C | 29% | 1018.1 hPa | 0 mm | - | - | - |
| 1777736439 | 27.78° C | 29% | 1018.3 hPa | 0 mm | - | - | - |
| 1777735839 | 27.78° C | 28% | 1018.4 hPa | 0 mm | - | - | - |
| 1777735240 | 28.33° C | 27% | 1018.5 hPa | 0 mm | - | - | - |
| 1777734640 | 28.33° C | 27% | 1018.6 hPa | 0 mm | - | - | - |
| 1777734040 | 28.89° C | 27% | 1018.8 hPa | 0 mm | - | - | - |
| 1777733440 | 28.33° C | 27% | 1018.9 hPa | 0 mm | - | - | - |
| 1777732840 | 28.89° C | 25% | 1019.1 hPa | 0 mm | - | - | - |
| 1777732240 | 29.44° C | 25% | 1019.2 hPa | 0 mm | - | - | - |
| 1777731640 | 29.44° C | 26% | 1019.3 hPa | 0 mm | - | - | - |
| 1777731040 | 28.89° C | 26% | 1019.6 hPa | 0 mm | - | - | - |
| 1777730440 | 28.89° C | 25% | 1019.6 hPa | 0 mm | - | - | - |
| 1777729840 | 28.33° C | 27% | 1019.9 hPa | 0 mm | - | - | - |
| 1777729240 | 28.33° C | 26% | 1019.9 hPa | 0 mm | - | - | - |
| 1777728640 | 28.33° C | 27% | 1020 hPa | 0 mm | - | - | - |
| 1777728040 | 28.33° C | 28% | 1020 hPa | 0 mm | - | - | - |
| 1777727440 | 28.33° C | 26% | 1020.3 hPa | 0 mm | - | - | - |
| 1777726840 | 28.89° C | 26% | 1020.3 hPa | 0.25 mm | - | - | - |
| 1777726240 | 28.89° C | 25% | 1020.7 hPa | 0.25 mm | - | - | - |
| 1777725640 | 28.33° C | 27% | 1020.7 hPa | 0.25 mm | - | - | - |
| 1777725040 | 28.33° C | 26% | 1020.8 hPa | 0.25 mm | - | - | - |
* Rain latest hour (hover to see other rain measurements)
** Current wind speed in m/s (hover to see current wind gust speed)